Location: Newcastle Observatory
(43.9158°N, 78.5831°W)
Time: 09:20:14
(UTC-05:00)

Amateur Radio Satellites - All Passes

Search period start: 29 January 2015 08:50
Search period end: 30 January 2015 08:50
Location: Newcastle Observatory, 43.9158°N, 78.5831°W

Satellite Date Start Highest point End Downlink Frequencies (MHz)
Time Altitude Azimuth
COMPASS 1 29 Jan 08:50:22 08:54:03 31° 95° (E) 08:57:46 437.405
PHONESAT 2.4 29 Jan 08:58:17 09:00:35 16° 153° (SSE) 09:02:56 2401.200-2431.200
GOMX 1 29 Jan 08:58:18 09:03:42 57° 99° (E) 09:08:50 467.674
CINEMA 3 29 Jan 08:59:26 09:03:17 24° 91° (E) 09:07:06 145.822/145.860
QB50P2 29 Jan 08:59:39 09:01:26 13° 62° (ENE) 09:03:24 145.880/145.840
YUBILEINY 29 Jan 09:01:38 09:07:37 20° 281° (W) 09:13:13 435.215
BRITE-PL 29 Jan 09:02:14 09:07:59 85° 101° (ESE) 09:13:29 437.365/2234.400
CANX-2 29 Jan 09:04:02 09:08:16 69° 100° (E) 09:12:28 2200.000
QB50P1 29 Jan 09:08:19 09:10:43 15° 63° (ENE) 09:13:17 145.935-145.965
DOVE 4 29 Jan 09:11:06 09:16:16 54° 99° (E) 09:21:09 437.250
DELFI C3 29 Jan 09:13:03 09:15:54 19° 92° (E) 09:18:50 145.870
UWE-3 29 Jan 09:16:25 09:19:12 16° 89° (E) 09:22:06 435.000/436.395/437.385
AAUSAT CUBESAT 2 29 Jan 09:16:29 09:20:34 53° 99° (E) 09:24:38 437.432
BUGSAT 1 29 Jan 09:20:37 09:22:55 15° 64° (ENE) 09:25:23 437.445
POLYITAN 1 29 Jan 09:22:08 09:25:21 21° 66° (ENE) 09:28:39 437.675
UNISAT 6 29 Jan 09:23:48 09:28:07 37° 70° (ENE) 09:32:28 437.425
CUTE 1.7 + AOD 2 29 Jan 09:28:14 09:32:28 71° 285° (WNW) 09:36:39 437.475
Oscar 11 29 Jan 09:29:26 09:33:24 36° 96° (E) 09:37:23 145.826/435.025
VERMONT LUNAR 29 Jan 09:36:51 09:40:00 33° 165° (SSE) 09:43:12 437.305
POPSAT HIP 1 29 Jan 09:41:31 09:45:19 32° 69° (ENE) 09:49:11 437.405
VELOX 1 29 Jan 09:43:52 09:45:14 11° 87° (E) 09:46:52 145.980
DUCHIFAT 1 29 Jan 09:44:11 09:48:00 33° 70° (ENE) 09:51:54 145.980
SO-50 29 Jan 09:59:14 10:03:12 31° 115° (ESE) 10:07:22 436.795
SEEDS 29 Jan 09:59:15 10:03:09 38° 289° (WNW) 10:07:01 437.485
ANTELSAT 29 Jan 09:59:19 10:04:03 83° 75° (ENE) 10:08:46 437.575/2403.000
50 SAT 29 Jan 10:00:41 10:03:00 15° 90° (E) 10:05:27 437.505
AIST 2 29 Jan 10:02:51 10:04:53 13° 33° (NNE) 10:07:03 435.215
UKube-1 29 Jan 10:04:38 10:08:52 47° 99° (E) 10:13:05 .
BEESAT 2 29 Jan 10:06:36 10:09:59 23° 42° (NE) 10:13:23 435.950
TIGRISAT 29 Jan 10:07:05 10:11:49 85° 257° (WSW) 10:16:33 435.000
HO-68 29 Jan 10:09:51 10:16:45 52° 294° (WNW) 10:23:36 435.675
CUBEBUG 2 29 Jan 10:11:28 10:16:06 73° 101° (ESE) 10:20:32 437.445
NANOSAT C BR1 29 Jan 10:18:15 10:22:31 79° 76° (ENE) 10:26:50 145.865
ZACube-1 29 Jan 10:19:17 10:23:43 62° 101° (E) 10:28:00 437.345
BEESAT 3 29 Jan 10:20:33 10:24:20 33° 47° (NE) 10:28:06 437.485
HUMSAT D 29 Jan 10:22:46 10:26:42 36° 96° (E) 10:30:35 437.325/437.525
DX 1 29 Jan 10:25:17 10:29:43 82° 103° (ESE) 10:34:07 434.975-435.025
COMPASS 1 29 Jan 10:26:17 10:29:41 24° 292° (WNW) 10:33:00 437.405
FUNcube-1 29 Jan 10:31:15 10:35:43 82° 102° (ESE) 10:40:02 145.935
QB50P2 29 Jan 10:32:33 10:36:50 72° 257° (WSW) 10:41:11 145.880/145.840
PHONESAT 2.4 29 Jan 10:35:14 10:38:39 40° 169° (SSE) 10:42:06 2401.200-2431.200
CINEMA 3 29 Jan 10:36:07 10:40:42 40° 290° (WNW) 10:45:03 145.822/145.860
GOMX 1 29 Jan 10:37:14 10:41:24 22° 297° (WNW) 10:45:18 467.674
CANX-2 29 Jan 10:41:50 10:43:44 12° 297° (WNW) 10:45:26 2200.000
QB50P1 29 Jan 10:42:00 10:46:13 57° 260° (W) 10:50:29 145.935-145.965
BRITE-PL 29 Jan 10:42:14 10:45:47 17° 300° (WNW) 10:49:03 437.365/2234.400
DELFI C3 29 Jan 10:47:34 10:51:19 36° 289° (WNW) 10:55:01 145.870
DOVE 4 29 Jan 10:49:40 10:53:37 21° 297° (WNW) 10:57:19 437.250
AISAT 29 Jan 10:49:40 10:54:08 58° 101° (E) 10:58:35 437.250
UWE-3 29 Jan 10:51:45 10:56:10 50° 288° (WNW) 11:00:24 435.000/436.395/437.385
ESTCUBE 1 29 Jan 10:52:46 10:56:39 28° 95° (E) 11:00:35 437.505/2401.250
AAUSAT CUBESAT 2 29 Jan 10:53:24 10:55:53 15° 296° (WNW) 10:58:12 437.432
BUGSAT 1 29 Jan 10:54:01 10:58:01 53° 260° (W) 11:02:07 437.445
POLYITAN 1 29 Jan 10:57:01 11:01:04 39° 263° (W) 11:05:09 437.675
UNISAT 6 29 Jan 11:01:05 11:05:01 25° 267° (W) 11:08:53 437.425
RS-15 29 Jan 11:03:26 11:12:40 29° 18° (NNE) 11:22:21 29.354- 29.394
Oscar 11 29 Jan 11:06:02 11:09:26 22° 293° (WNW) 11:12:44 145.826/435.025
GONETS M04 29 Jan 11:09:39 11:16:36 27° 63° (ENE) 11:23:46
SPROUT 29 Jan 11:14:23 11:15:12 11° 86° (E) 11:16:18 437.525
VERMONT LUNAR 29 Jan 11:14:26 11:17:50 48° 181° (S) 11:21:14 437.305
AIST 1 29 Jan 11:15:31 11:19:38 52° 94° (E) 11:23:48
POPSAT HIP 1 29 Jan 11:17:43 11:21:17 24° 266° (W) 11:24:47 437.405
VELOX 1 29 Jan 11:17:56 11:22:27 74° 285° (WNW) 11:26:56 145.980
DUCHIFAT 1 29 Jan 11:20:30 11:23:58 23° 267° (W) 11:27:22 145.980
CUBEBUG 1 29 Jan 11:26:17 11:30:41 58° 100° (E) 11:35:05 437.445
50 SAT 29 Jan 11:34:32 11:38:27 45° 288° (WNW) 11:42:17 437.505
SO-50 29 Jan 11:39:23 11:43:42 37° 314° (NW) 11:48:07 436.795
AIST 2 29 Jan 11:40:02 11:44:20 72° 54° (NE) 11:48:34 435.215
ANTELSAT 29 Jan 11:40:04 11:41:33 11° 274° (W) 11:42:43 437.575/2403.000
UKube-1 29 Jan 11:41:39 11:44:43 18° 296° (WNW) 11:47:40 .
BEESAT 2 29 Jan 11:44:25 11:48:25 44° 241° (WSW) 11:52:21 435.950
TISAT 1 29 Jan 11:49:16 11:52:48 25° 94° (E) 11:56:23 437.305
CUBEBUG 2 29 Jan 11:49:54 11:52:13 14° 299° (WNW) 11:54:20 437.445
ZACube-1 29 Jan 11:57:05 11:59:37 15° 297° (WNW) 12:01:59 437.345
BEESAT 3 29 Jan 11:58:49 12:02:25 28° 245° (WSW) 12:05:55 437.485
HUMSAT D 29 Jan 11:59:02 12:02:19 21° 294° (WNW) 12:05:28 437.325/437.525
HO-68 29 Jan 12:00:46 12:03:01 11° 313° (NW) 12:04:53 435.675
DX 1 29 Jan 12:03:46 12:05:24 12° 300° (WNW) 12:06:50 434.975-435.025
FUNcube-1 29 Jan 12:09:52 12:11:27 12° 299° (WNW) 12:12:50 145.935
PCSat 29 Jan 12:12:10 12:16:32 24° 43° (NE) 12:20:59 145.827
PHONESAT 2.4 29 Jan 12:13:27 12:16:58 47° 186° (S) 12:20:28 2401.200-2431.200
Oscar 19 29 Jan 12:18:01 12:22:55 44° 70° (ENE) 12:27:51 437.125/150
AISAT 29 Jan 12:27:29 12:30:21 16° 297° (WNW) 12:33:05 437.250
ESTCUBE 1 29 Jan 12:29:33 12:33:33 31° 292° (WNW) 12:37:30 437.505/2401.250
BEESAT 29 Jan 12:32:08 12:33:38 12° 87° (E) 12:35:24 436.000
ITAMSAT 1 29 Jan 12:35:13 12:39:16 24° 64° (ENE) 12:43:27 435.822/435.867
ITUPSAT 1 29 Jan 12:35:42 12:37:37 13° 87° (E) 12:39:47 437.325
SPROUT 29 Jan 12:47:34 12:51:56 75° 286° (WNW) 12:56:17 437.525
VERMONT LUNAR 29 Jan 12:52:32 12:55:38 29° 198° (SSW) 12:58:43 437.305
AIST 1 29 Jan 12:55:19 12:57:45 14° 294° (WNW) 13:00:01
CUBEBUG 1 29 Jan 13:03:55 13:06:40 16° 297° (WNW) 13:09:16 437.445
GONETS M04 29 Jan 13:05:45 13:14:25 73° 266° (W) 13:23:02
RS-15 29 Jan 13:16:37 13:27:50 65° 48° (NE) 13:39:35 29.354- 29.394
AIST 2 29 Jan 13:20:30 13:22:27 13° 250° (WSW) 13:24:10 435.215
TISAT 1 29 Jan 13:24:50 13:28:41 31° 291° (WNW) 13:32:27 437.305
Gurwin Techsat 1B 29 Jan 13:31:35 13:36:41 52° 71° (ENE) 13:41:52 435.225
AO-7 29 Jan 13:34:11 13:40:18 24° 51° (NE) 13:46:39 29.400- 29.500
HORYU 2 29 Jan 13:40:16 13:43:24 19° 64° (ENE) 13:46:39 437.375
SWISSCUBE 29 Jan 13:51:35 13:56:24 78° 103° (ESE) 14:01:12 437.505
PHONESAT 2.4 29 Jan 13:52:10 13:55:09 24° 202° (SSW) 13:58:07 2401.200-2431.200
PCSat 29 Jan 13:55:04 14:00:27 63° 243° (WSW) 14:05:47 145.827
Oscar 19 29 Jan 13:58:12 14:02:30 25° 267° (W) 14:06:41 437.125/150
BEESAT 29 Jan 14:07:23 14:12:12 80° 285° (WNW) 14:16:58 436.000
ITUPSAT 1 29 Jan 14:11:22 14:16:10 75° 285° (WNW) 14:20:57 437.325
DANDE 29 Jan 14:13:19 14:18:41 24° 59° (ENE) 14:23:12 436.750
ITAMSAT 1 29 Jan 14:13:33 14:18:32 47° 261° (W) 14:23:33 435.822/435.867
STARS 29 Jan 14:20:02 14:23:13 20° 92° (E) 14:26:31 437.465
KKS-1 29 Jan 14:26:06 14:30:11 34° 97° (E) 14:34:16 437.445
CUSAT 1 29 Jan 14:41:27 14:47:32 42° 68° (ENE) 14:52:11 437.405
GONETS M04 29 Jan 15:05:36 15:09:51 14° 285° (WNW) 15:13:30
Gurwin Techsat 1B 29 Jan 15:12:55 15:17:02 22° 269° (W) 15:21:01 435.225
HORYU 2 29 Jan 15:15:25 15:19:47 47° 261° (W) 15:24:09 437.375
AUBIESAT-1 29 Jan 15:19:03 15:21:39 21° 100° (E) 15:24:21 437.475
O/OREOS (USA 219) 29 Jan 15:20:56 15:23:48 17° 101° (ESE) 15:26:51 437.305
AO-7 29 Jan 15:23:47 15:32:10 90° 246° (WSW) 15:40:37 29.400- 29.500
RS-15 29 Jan 15:29:29 15:39:55 42° 250° (WSW) 15:50:32 29.354- 29.394
SWISSCUBE 29 Jan 15:31:13 15:33:43 14° 299° (WNW) 15:36:01 437.505
JAS-2 29 Jan 15:45:28 15:50:47 55° 72° (ENE) 15:55:52 435.910
BEESAT 29 Jan 15:48:10 15:49:20 11° 302° (WNW) 15:50:16 436.000
ITUPSAT 1 29 Jan 15:52:57 15:53:20 10° 302° (WNW) 15:53:26 437.325
STARS 29 Jan 15:55:43 15:59:57 42° 289° (WNW) 16:04:07 437.465
DANDE 29 Jan 15:56:16 16:02:58 57° 267° (W) 16:07:55 436.750
KKS-1 29 Jan 16:02:58 16:06:43 26° 293° (WNW) 16:10:22 437.445
MOZHAYETS 4 29 Jan 16:07:12 16:10:12 18° 90° (E) 16:13:21
Cubesat XI-IV 29 Jan 16:20:00 16:23:35 19° 61° (ENE) 16:27:21 437.490
M-CUBED/EXP-1 PRIME 29 Jan 16:20:27 16:23:40 49° 292° (WNW) 16:26:57 437.505
CUSAT 1 29 Jan 16:25:05 16:30:11 26° 276° (W) 16:34:09 437.405
CUTE-I 29 Jan 16:38:59 16:43:21 27° 65° (ENE) 16:47:48 437.470
SO-50 29 Jan 16:49:57 16:51:39 12° 26° (NNE) 16:53:29 436.795
AUBIESAT-1 29 Jan 16:53:57 16:56:36 22° 296° (WNW) 16:59:15 437.475
O/OREOS (USA 219) 29 Jan 16:58:30 17:02:52 49° 298° (WNW) 17:07:18 437.305
AO-7 29 Jan 17:20:19 17:26:14 20° 272° (W) 17:31:43 29.400- 29.500
JAS-2 29 Jan 17:32:32 17:36:23 19° 269° (W) 17:39:55 435.910
MOZHAYETS 4 29 Jan 17:43:22 17:47:47 49° 288° (WNW) 17:52:11
PRISM 29 Jan 17:55:14 17:58:29 22° 94° (E) 18:01:50 437.425
Cubesat XI-IV 29 Jan 17:57:57 18:03:14 65° 258° (WSW) 18:08:34 437.490
CUBESAT XI-V 29 Jan 18:00:07 18:03:36 21° 91° (E) 18:07:13 437.345
YUBILEINY 29 Jan 18:12:15 18:17:58 21° 79° (E) 18:24:07 435.215
STRAND 1 29 Jan 18:14:20 18:18:08 21° 91° (E) 18:22:04 437.568
CUTE-I 29 Jan 18:18:10 18:23:14 44° 262° (W) 18:28:20 437.470
SO-50 29 Jan 18:28:46 18:33:29 45° 48° (NE) 18:38:14 436.795
GOMX 1 29 Jan 18:34:06 18:35:07 11° 56° (NE) 18:36:25 467.674
BRITE-PL 29 Jan 18:38:10 18:41:15 16° 60° (ENE) 18:44:39 437.365/2234.400
CUTE 1.7 + AOD 2 29 Jan 18:50:14 18:51:13 11° 62° (ENE) 18:52:24 437.475
HO-68 29 Jan 18:53:01 18:58:56 30° 60° (ENE) 19:05:00 435.675
SEEDS 29 Jan 19:18:17 19:21:08 18° 66° (ENE) 19:24:06 437.485
PRISM 29 Jan 19:30:22 19:34:06 32° 291° (WNW) 19:37:48 437.425
CUBESAT XI-V 29 Jan 19:36:50 19:41:18 43° 289° (WNW) 19:45:44 437.345
COMPASS 1 29 Jan 19:43:29 19:47:00 27° 69° (ENE) 19:50:36 437.405
STRAND 1 29 Jan 19:52:41 19:57:41 51° 289° (WNW) 20:02:39 437.568
CANX-2 29 Jan 19:58:16 20:02:29 59° 74° (ENE) 20:06:43 2200.000
CINEMA 3 29 Jan 20:02:14 20:06:21 28° 67° (ENE) 20:10:39 145.822/145.860
DELFI C3 29 Jan 20:03:28 20:05:54 16° 65° (ENE) 20:08:27 145.870
YUBILEINY 29 Jan 20:05:07 20:13:49 85° 278° (W) 20:22:36 435.215
GOMX 1 29 Jan 20:07:12 20:12:15 68° 75° (ENE) 20:17:39 467.674
AAUSAT CUBESAT 2 29 Jan 20:08:56 20:12:55 43° 72° (ENE) 20:16:56 437.432
SO-50 29 Jan 20:09:43 20:13:54 27° 246° (WSW) 20:17:59 436.795
BRITE-PL 29 Jan 20:13:59 20:19:04 78° 258° (WSW) 20:24:36 437.365/2234.400
UWE-3 29 Jan 20:15:03 20:18:13 19° 64° (ENE) 20:21:32 435.000/436.395/437.385
DOVE 4 29 Jan 20:17:28 20:22:27 63° 74° (ENE) 20:27:43 437.250
CUTE 1.7 + AOD 2 29 Jan 20:22:17 20:26:35 83° 257° (WSW) 20:30:54 437.475
Oscar 11 29 Jan 20:25:38 20:29:33 34° 70° (ENE) 20:33:30 145.826/435.025
HO-68 29 Jan 20:39:15 20:46:18 60° 258° (WSW) 20:53:22 435.675
VELOX 1 29 Jan 20:43:10 20:45:19 14° 62° (ENE) 20:47:40 145.980
50 SAT 29 Jan 20:50:25 20:52:20 13° 63° (ENE) 20:54:24 437.505
SEEDS 29 Jan 20:52:35 20:56:41 45° 262° (W) 21:00:47 437.485
UKube-1 29 Jan 21:00:58 21:05:08 48° 72° (ENE) 21:09:21 .
CUBEBUG 2 29 Jan 21:10:34 21:15:19 73° 74° (ENE) 21:20:07 437.445
HUMSAT D 29 Jan 21:16:11 21:20:04 33° 69° (ENE) 21:23:59 437.325/437.525
ZACube-1 29 Jan 21:16:16 21:20:48 59° 73° (ENE) 21:25:22 437.345
COMPASS 1 29 Jan 21:19:01 21:22:42 28° 265° (W) 21:26:21 437.405
DX 1 29 Jan 21:22:08 21:26:30 85° 76° (ENE) 21:30:54 434.975-435.025
AIST 1 29 Jan 21:22:12 21:24:53 16° 68° (ENE) 21:27:44
FUNcube-1 29 Jan 21:27:59 21:32:35 77° 76° (ENE) 21:37:14 145.935
CANX-2 29 Jan 21:36:42 21:38:54 13° 272° (W) 21:40:54 2200.000
DELFI C3 29 Jan 21:36:51 21:40:49 48° 261° (W) 21:44:47 145.870
CINEMA 3 29 Jan 21:38:47 21:43:25 39° 264° (W) 21:48:08 145.822/145.860
AAUSAT CUBESAT 2 29 Jan 21:45:59 21:48:51 17° 269° (W) 21:51:35 437.432
GOMX 1 29 Jan 21:47:42 21:51:02 16° 274° (W) 21:54:14 467.674
AISAT 29 Jan 21:49:00 21:53:23 62° 74° (ENE) 21:57:51 437.250
UWE-3 29 Jan 21:49:48 21:54:24 54° 261° (W) 21:59:02 435.000/436.395/437.385
ANTELSAT 29 Jan 21:51:49 21:54:22 15° 89° (E) 21:57:04 437.575/2403.000
ESTCUBE 1 29 Jan 21:54:00 21:57:56 31° 69° (ENE) 22:01:55 437.505/2401.250
DOVE 4 29 Jan 21:57:18 22:00:47 18° 273° (W) 22:04:09 437.250
TIGRISAT 29 Jan 21:58:57 22:01:55 18° 90° (E) 22:04:59 435.000
Oscar 11 29 Jan 22:02:18 22:05:50 23° 267° (W) 22:09:18 145.826/435.025
NANOSAT C BR1 29 Jan 22:04:20 22:05:50 12° 87° (E) 22:07:35 145.865
YUBILEINY 29 Jan 22:06:13 22:12:17 19° 303° (WNW) 22:17:59 435.215
ISS 29 Jan 22:07:49 22:11:03 64° 145° (SE) 22:14:20 145.825
SPROUT 29 Jan 22:10:33 22:11:45 11° 61° (ENE) 22:13:11 437.525
VELOX 1 29 Jan 22:17:00 22:21:25 69° 258° (WSW) 22:25:53 145.980
QB50P2 29 Jan 22:17:52 22:20:42 17° 91° (E) 22:23:38 145.880/145.840
50 SAT 29 Jan 22:22:54 22:27:00 62° 260° (W) 22:31:08 437.505
CUBEBUG 1 29 Jan 22:23:52 22:28:07 57° 73° (ENE) 22:32:26 437.445
QB50P1 29 Jan 22:26:42 22:29:57 21° 92° (E) 22:33:17 145.935-145.965
BUGSAT 1 29 Jan 22:35:42 22:38:54 20° 92° (E) 22:42:10 437.445
UKube-1 29 Jan 22:38:48 22:41:38 16° 269° (W) 22:44:20 .
POLYITAN 1 29 Jan 22:41:27 22:45:17 30° 96° (E) 22:49:07 437.675
TISAT 1 29 Jan 22:43:26 22:46:46 23° 67° (ENE) 22:50:13 437.305
CUBEBUG 2 29 Jan 22:50:16 22:52:38 13° 274° (W) 22:54:45 437.445
UNISAT 6 29 Jan 22:51:06 22:55:34 64° 101° (E) 22:59:54 437.425
HUMSAT D 29 Jan 22:52:18 22:55:56 24° 267° (W) 22:59:29 437.325/437.525
ZACube-1 29 Jan 22:54:50 22:57:38 15° 272° (W) 23:00:15 437.345
AIST 1 29 Jan 22:58:42 23:02:54 48° 266° (W) 23:07:07
POPSAT HIP 1 29 Jan 23:00:57 23:05:09 48° 99° (E) 23:09:19 437.405
DUCHIFAT 1 29 Jan 23:03:15 23:07:28 51° 99° (E) 23:11:39 145.980
FUNcube-1 29 Jan 23:07:51 23:09:35 12° 274° (W) 23:11:03 145.935
SWISSCUBE 29 Jan 23:24:49 23:27:03 14° 60° (ENE) 23:29:29 437.505
ANTELSAT 29 Jan 23:27:15 23:31:37 53° 288° (WNW) 23:35:51 437.575/2403.000
AISAT 29 Jan 23:28:12 23:30:32 14° 272° (W) 23:32:40 437.250
ESTCUBE 1 29 Jan 23:31:00 23:34:50 27° 266° (W) 23:38:40 437.505/2401.250
TIGRISAT 29 Jan 23:34:43 23:39:01 45° 289° (WNW) 23:43:10 435.000
NANOSAT C BR1 29 Jan 23:37:58 23:42:16 66° 286° (WNW) 23:46:31 145.865
BEESAT 29 Jan 23:39:36 23:42:38 17° 62° (ENE) 23:45:47 436.000
SPROUT 29 Jan 23:42:57 23:47:17 82° 258° (WSW) 23:51:39 437.525
ITUPSAT 1 29 Jan 23:43:41 23:46:51 19° 63° (ENE) 23:50:11 437.325
ISS 29 Jan 23:44:50 23:47:47 29° 344° (NNW) 23:50:43 145.825
QB50P2 29 Jan 23:52:46 23:56:55 45° 289° (WNW) 00:01:00 145.880/145.840
QB50P1 30 Jan 00:02:00 00:06:00 37° 290° (WNW) 00:09:57 145.935-145.965
CUBEBUG 1 30 Jan 00:02:34 00:04:58 14° 271° (W) 00:07:12 437.445
BUGSAT 1 30 Jan 00:10:34 00:14:34 38° 289° (WNW) 00:18:31 437.445
GONETS M04 30 Jan 00:13:30 00:20:24 28° 83° (E) 00:27:32
POLYITAN 1 30 Jan 00:17:30 00:21:09 26° 292° (WNW) 00:24:42 437.675
TISAT 1 30 Jan 00:18:35 00:22:28 33° 264° (W) 00:26:22 437.305
UNISAT 6 30 Jan 00:29:23 00:31:52 14° 298° (WNW) 00:34:09 437.425
Oscar 19 30 Jan 00:29:53 00:32:12 13° 87° (E) 00:34:48 437.125/150
POPSAT HIP 1 30 Jan 00:37:47 00:40:44 18° 295° (WNW) 00:43:31 437.405
DUCHIFAT 1 30 Jan 00:40:10 00:42:59 17° 296° (WNW) 00:45:39 145.980
SWISSCUBE 30 Jan 00:59:37 01:04:22 79° 257° (WSW) 01:09:09 437.505
BEESAT 30 Jan 01:15:22 01:20:04 60° 259° (WSW) 01:24:48 436.000
STARS 30 Jan 01:18:41 01:22:02 22° 66° (ENE) 01:25:31 437.465
ITUPSAT 1 30 Jan 01:19:43 01:24:24 55° 260° (W) 01:29:06 437.325
ISS 30 Jan 01:22:23 01:24:59 21° 3° (N) 01:27:36 145.825
KKS-1 30 Jan 01:25:41 01:29:48 37° 70° (ENE) 01:33:58 437.445
O/OREOS (USA 219) 30 Jan 01:27:44 01:32:09 43° 61° (ENE) 01:36:33 437.305
M-CUBED/EXP-1 PRIME 30 Jan 01:36:56 01:39:59 22° 64° (ENE) 01:42:55 437.505
BEESAT 2 30 Jan 01:40:54 01:44:13 24° 114° (ESE) 01:47:39 435.950
AIST 2 30 Jan 01:42:52 01:43:49 11° 109° (ESE) 01:45:00 435.215
Gurwin Techsat 1B 30 Jan 01:47:19 01:50:51 18° 89° (E) 01:54:34 435.225
BEESAT 3 30 Jan 01:53:45 01:57:31 37° 117° (ESE) 02:01:23 437.485
Oscar 19 30 Jan 02:07:07 02:12:17 78° 287° (WNW) 02:17:25 437.125/150
GONETS M04 30 Jan 02:07:56 02:16:40 67° 283° (WNW) 02:25:21
AUBIESAT-1 30 Jan 02:08:48 02:12:33 44° 68° (ENE) 02:16:03 437.475
CUSAT 1 30 Jan 02:12:24 02:14:18 11° 77° (ENE) 02:16:52 437.405
ITAMSAT 1 30 Jan 02:24:41 02:29:50 56° 100° (E) 02:34:59 435.822/435.867
STARS 30 Jan 02:54:07 02:58:19 40° 262° (W) 03:02:32 437.465
PCSat 30 Jan 02:58:07 03:00:24 13° 104° (ESE) 03:02:58 145.827
ISS 30 Jan 02:58:55 03:02:05 41° 23° (NNE) 03:05:15 145.825
KKS-1 30 Jan 03:02:59 03:06:35 23° 267° (W) 03:10:08 437.445
HORYU 2 30 Jan 03:05:45 03:09:36 29° 95° (E) 03:13:29 437.375
O/OREOS (USA 219) 30 Jan 03:07:50 03:11:19 21° 257° (WSW) 03:14:39 437.305
MOZHAYETS 4 30 Jan 03:10:47 03:14:07 21° 66° (ENE) 03:17:34
M-CUBED/EXP-1 PRIME 30 Jan 03:11:20 03:14:54 30° 257° (WSW) 03:18:12 437.505
AIST 2 30 Jan 03:17:35 03:21:51 83° 302° (WNW) 03:26:11 435.215
BEESAT 2 30 Jan 03:18:25 03:22:18 37° 312° (NW) 03:26:13 435.950
DANDE 30 Jan 03:23:52 03:31:03 35° 87° (E) 03:38:38 436.750
AO-7 30 Jan 03:24:37 03:31:22 28° 92° (E) 03:38:19 29.400- 29.500
Gurwin Techsat 1B 30 Jan 03:26:04 03:31:20 61° 288° (WNW) 03:36:34 435.225
BEESAT 3 30 Jan 03:32:13 03:35:46 26° 316° (NW) 03:39:18 437.485
RS-15 30 Jan 03:43:57 03:52:48 32° 106° (ESE) 04:02:01 29.354- 29.394
AUBIESAT-1 30 Jan 03:45:23 03:47:41 15° 262° (W) 03:49:45 437.475
CUSAT 1 30 Jan 03:47:58 03:55:56 55° 93° (E) 04:04:02 437.405
Oscar 19 30 Jan 03:49:03 03:50:53 12° 303° (WNW) 03:52:27 437.125/150
ITAMSAT 1 30 Jan 04:05:03 04:09:00 21° 297° (WNW) 04:12:48 435.822/435.867
GONETS M04 30 Jan 04:10:59 04:15:42 15° 307° (NW) 04:19:52
YUBILEINY 30 Jan 04:20:42 04:22:31 11° 48° (NE) 04:25:00 435.215
ISS 30 Jan 04:35:33 04:38:33 32° 221° (SW) 04:41:32 145.825
JAS-2 30 Jan 04:36:12 04:41:38 45° 99° (E) 04:47:43 435.910
PCSat 30 Jan 04:37:42 04:43:08 89° 300° (WNW) 04:48:37 145.827
HORYU 2 30 Jan 04:42:24 04:46:16 29° 292° (WNW) 04:50:03 437.375
MOZHAYETS 4 30 Jan 04:46:42 04:51:06 44° 262° (W) 04:55:30
PRISM 30 Jan 04:47:37 04:50:42 21° 66° (ENE) 04:53:51 437.425
AIST 2 30 Jan 04:58:44 05:01:13 15° 325° (NW) 05:03:36 435.215
CUBESAT XI-V 30 Jan 05:05:11 05:08:49 24° 67° (ENE) 05:12:34 437.345
DANDE 30 Jan 05:05:53 05:14:10 62° 285° (WNW) 05:22:42 436.750
AO-7 30 Jan 05:16:37 05:24:55 70° 293° (WNW) 05:33:07 29.400- 29.500
STRAND 1 30 Jan 05:31:24 05:35:58 35° 68° (ENE) 05:40:38 437.568
CUSAT 1 30 Jan 05:31:33 05:39:18 39° 292° (WNW) 05:46:54 437.405
RS-15 30 Jan 05:53:21 06:04:16 76° 308° (NW) 06:15:22 29.354- 29.394
YUBILEINY 30 Jan 06:13:35 06:22:06 53° 74° (ENE) 06:30:41 435.215
Cubesat XI-IV 30 Jan 06:13:51 06:19:00 45° 98° (E) 06:24:10 437.490
JAS-2 30 Jan 06:21:48 06:26:40 30° 293° (WNW) 06:31:53 435.910
PRISM 30 Jan 06:22:16 06:26:03 35° 263° (W) 06:29:50 437.425
PCSat 30 Jan 06:23:33 06:27:23 19° 322° (NW) 06:31:07 145.827
CUTE-I 30 Jan 06:33:27 06:38:50 67° 102° (ESE) 06:44:12 437.470
CUBESAT XI-V 30 Jan 06:41:50 06:46:07 37° 264° (W) 06:50:25 437.345
DANDE 30 Jan 06:54:25 06:59:35 16° 307° (NW) 07:04:15 436.750
STRAND 1 30 Jan 07:10:45 07:15:14 30° 265° (W) 07:19:42 437.568
AO-7 30 Jan 07:11:06 07:16:24 18° 313° (NW) 07:21:22 29.400- 29.500
Cubesat XI-IV 30 Jan 07:54:26 07:58:54 27° 296° (WNW) 08:03:15 437.490
HO-68 30 Jan 08:05:58 08:11:35 25° 91° (E) 08:17:23 435.675
CUTE 1.7 + AOD 2 30 Jan 08:07:44 08:10:09 15° 89° (E) 08:12:44 437.475
GOMX 1 30 Jan 08:08:59 08:12:55 21° 89° (E) 08:16:52 467.674
RS-15 30 Jan 08:09:25 08:18:52 31° 337° (NNW) 08:28:24 29.354- 29.394
YUBILEINY 30 Jan 08:10:53 08:18:42 37° 274° (W) 08:26:23 435.215
CUTE-I 30 Jan 08:14:42 08:18:27 19° 299° (WNW) 08:22:02 437.470
DOVE 4 30 Jan 08:17:00 08:20:15 17° 87° (E) 08:23:36 437.250
BRITE-PL 30 Jan 08:17:52 08:23:02 36° 94° (E) 08:28:04 437.365/2234.400
PHONESAT 2.4 30 Jan 08:22:42 08:24:45 15° 152° (SSE) 08:26:51 2401.200-2431.200
SEEDS 30 Jan 08:36:10 08:39:41 26° 94° (E) 08:43:14 437.485
